Time,TemperatureF,DewpointF,PressureIn,WindDirection,WindDirectionDegrees,WindSpeedMPH,WindSpeedGustMPH,Humidity,HourlyPrecipIn,Conditions,Clouds,dailyrainin,SoftwareType,DateUTC
2013-06-17 00:02:00,69.6,65.9,29.88,WSW,248,3.0,3.0,88,0.00,,,0.00,Wunderground v.1.15,2013-06-17 05:02:00,
2013-06-17 00:08:00,69.7,66.0,29.89,West,262,3.0,3.0,88,0.00,,,0.00,Wunderground v.1.15,2013-06-17 05:08:00,
2013-06-17 00:13:00,69.7,66.0,29.89,West,269,3.0,3.0,88,0.00,,,0.00,Wunderground v.1.15,2013-06-17 05:13:00,
2013-06-17 00:20:00,69.5,66.1,29.89,West,280,3.0,5.0,89,0.00,,,0.00,Wunderground v.1.15,2013-06-17 05:20:00,
2013-06-17 00:26:00,69.5,66.1,29.89,WNW,290,4.0,5.0,89,0.00,,,0.00,Wunderground v.1.15,2013-06-17 05:26:00,
2013-06-17 00:32:00,69.5,65.8,29.89,WNW,292,3.0,4.0,88,0.00,,,0.00,Wunderground v.1.15,2013-06-17 05:32:00,
2013-06-17 00:37:00,69.8,66.1,29.89,WNW,294,4.0,5.0,88,0.00,,,0.00,Wunderground v.1.15,2013-06-17 05:37:00,
2013-06-17 00:44:00,70.1,66.0,29.89,WNW,293,4.0,5.0,87,0.00,,,0.00,Wunderground v.1.15,2013-06-17 05:44:00,
2013-06-17 00:49:00,70.3,66.2,29.88,WNW,296,4.0,4.0,87,0.00,,,0.00,Wunderground v.1.15,2013-06-17 05:49:00,
2013-06-17 00:55:00,70.2,66.1,29.88,WNW,296,3.0,5.0,87,0.00,,,0.00,Wunderground v.1.15,2013-06-17 05:55:00,
2013-06-17 01:02:00,70.3,66.2,29.88,WNW,298,4.0,5.0,87,0.00,,,0.00,Wunderground v.1.15,2013-06-17 06:02:00,
2013-06-17 01:08:00,70.4,66.0,29.88,WNW,296,4.0,5.0,86,0.00,,,0.00,Wunderground v.1.15,2013-06-17 06:08:00,
2013-06-17 01:13:00,70.1,66.0,29.88,WNW,293,4.0,4.0,87,0.00,,,0.00,Wunderground v.1.15,2013-06-17 06:13:00,
2013-06-17 01:19:00,69.9,65.9,29.88,WNW,293,3.0,3.0,87,0.00,,,0.00,Wunderground v.1.15,2013-06-17 06:19:00,
2013-06-17 01:25:00,69.5,65.8,29.88,WNW,293,2.0,3.0,88,0.00,,,0.00,Wunderground v.1.15,2013-06-17 06:25:00,
2013-06-17 01:31:00,69.0,65.3,29.87,WNW,293,1.0,2.0,88,0.00,,,0.00,Wunderground v.1.15,2013-06-17 06:31:00,
2013-06-17 01:37:00,68.5,64.8,29.87,WNW,293,1.0,2.0,88,0.00,,,0.00,Wunderground v.1.15,2013-06-17 06:37:00,
2013-06-17 01:44:00,68.0,64.6,29.87,WNW,293,0.0,1.0,89,0.00,,,0.00,Wunderground v.1.15,2013-06-17 06:44:00,
2013-06-17 01:50:00,67.5,64.1,29.87,WNW,293,0.0,0.0,89,0.00,,,0.00,Wunderground v.1.15,2013-06-17 06:50:00,
2013-06-17 01:56:00,67.0,64.0,29.86,WNW,293,0.0,0.0,90,0.00,,,0.00,Wunderground v.1.15,2013-06-17 06:56:00,
2013-06-17 02:01:00,66.8,63.8,29.86,WNW,293,0.0,0.0,90,0.00,,,0.00,Wunderground v.1.15,2013-06-17 07:01:00,
2013-06-17 02:08:00,66.5,63.8,29.86,WNW,293,0.0,0.0,91,0.00,,,0.00,Wunderground v.1.15,2013-06-17 07:08:00,
2013-06-17 02:14:00,66.2,63.5,29.87,WNW,293,0.0,0.0,91,0.00,,,0.00,Wunderground v.1.15,2013-06-17 07:14:00,
2013-06-17 02:20:00,65.7,63.0,29.86,WNW,293,0.0,0.0,91,0.00,,,0.00,Wunderground v.1.15,2013-06-17 07:20:00,
2013-06-17 02:26:00,65.5,62.8,29.87,WNW,293,0.0,0.0,91,0.00,,,0.00,Wunderground v.1.15,2013-06-17 07:26:00,
2013-06-17 02:32:00,65.1,62.7,29.87,WNW,293,0.0,0.0,92,0.00,,,0.00,Wunderground v.1.15,2013-06-17 07:32:00,
2013-06-17 02:38:00,64.9,62.5,29.87,WNW,293,0.0,0.0,92,0.00,,,0.00,Wunderground v.1.15,2013-06-17 07:38:00,
2013-06-17 02:43:00,64.6,62.2,29.88,WNW,293,0.0,0.0,92,0.00,,,0.00,Wunderground v.1.15,2013-06-17 07:43:00,
2013-06-17 02:50:00,64.3,61.9,29.87,WNW,293,0.0,0.0,92,0.00,,,0.00,Wunderground v.1.15,2013-06-17 07:50:00,
2013-06-17 02:56:00,63.8,61.4,29.88,WNW,293,0.0,0.0,92,0.00,,,0.00,Wunderground v.1.15,2013-06-17 07:56:00,
2013-06-17 03:02:00,63.4,61.0,29.88,WNW,293,0.0,0.0,92,0.00,,,0.00,Wunderground v.1.15,2013-06-17 08:02:00,
2013-06-17 03:08:00,63.1,61.0,29.88,WNW,293,0.0,0.0,93,0.00,,,0.00,Wunderground v.1.15,2013-06-17 08:08:00,
2013-06-17 03:13:00,63.4,61.6,29.88,WNW,293,0.0,0.0,94,0.00,,,0.00,Wunderground v.1.15,2013-06-17 08:13:00,
2013-06-17 03:20:00,63.5,61.7,29.88,WNW,293,0.0,0.0,94,0.00,,,0.00,Wunderground v.1.15,2013-06-17 08:20:00,
2013-06-17 03:26:00,63.6,61.8,29.88,WNW,293,0.0,0.0,94,0.00,,,0.00,Wunderground v.1.15,2013-06-17 08:26:00,
2013-06-17 03:32:00,63.4,61.6,29.88,WNW,293,0.0,0.0,94,0.00,,,0.00,Wunderground v.1.15,2013-06-17 08:32:00,
2013-06-17 03:38:00,63.0,60.9,29.88,WNW,293,0.0,0.0,93,0.00,,,0.00,Wunderground v.1.15,2013-06-17 08:38:00,
2013-06-17 03:43:00,62.5,60.4,29.88,WNW,293,0.0,0.0,93,0.00,,,0.00,Wunderground v.1.15,2013-06-17 08:43:00,
2013-06-17 03:50:00,62.2,60.2,29.88,WNW,293,0.0,0.0,93,0.00,,,0.00,Wunderground v.1.15,2013-06-17 08:50:00,
2013-06-17 03:56:00,62.2,60.5,29.88,WNW,293,0.0,0.0,94,0.00,,,0.00,Wunderground v.1.15,2013-06-17 08:56:00,
2013-06-17 04:02:00,61.9,59.9,29.88,WNW,293,0.0,0.0,93,0.00,,,0.00,Wunderground v.1.15,2013-06-17 09:02:00,
2013-06-17 04:08:00,61.5,59.5,29.88,WNW,293,0.0,0.0,93,0.00,,,0.00,Wunderground v.1.15,2013-06-17 09:08:00,
2013-06-17 04:14:00,61.3,59.6,29.88,WNW,293,0.0,0.0,94,0.00,,,0.00,Wunderground v.1.15,2013-06-17 09:14:00,
2013-06-17 04:19:00,61.6,60.2,29.87,WNW,293,0.0,0.0,95,0.00,,,0.00,Wunderground v.1.15,2013-06-17 09:19:00,
2013-06-17 04:26:00,61.8,60.1,29.87,WNW,293,0.0,0.0,94,0.00,,,0.00,Wunderground v.1.15,2013-06-17 09:26:00,
2013-06-17 04:31:00,61.9,60.2,29.86,WNW,293,0.0,0.0,94,0.00,,,0.00,Wunderground v.1.15,2013-06-17 09:31:00,
2013-06-17 04:38:00,61.7,60.0,29.86,WNW,293,0.0,0.0,94,0.00,,,0.00,Wunderground v.1.15,2013-06-17 09:38:00,
2013-06-17 04:43:00,61.6,59.9,29.86,WNW,293,0.0,0.0,94,0.00,,,0.00,Wunderground v.1.15,2013-06-17 09:43:00,
2013-06-17 04:49:00,61.4,59.7,29.87,WNW,293,0.0,0.0,94,0.00,,,0.00,Wunderground v.1.15,2013-06-17 09:49:00,
2013-06-17 04:55:00,61.2,59.5,29.87,WNW,293,0.0,0.0,94,0.00,,,0.00,Wunderground v.1.15,2013-06-17 09:55:00,
2013-06-17 05:02:00,61.2,59.8,29.87,WNW,293,0.0,0.0,95,0.00,,,0.00,Wunderground v.1.15,2013-06-17 10:02:00,
2013-06-17 05:08:00,61.3,59.9,29.86,WNW,293,0.0,0.0,95,0.00,,,0.00,Wunderground v.1.15,2013-06-17 10:08:00,
2013-06-17 05:14:00,61.1,59.4,29.86,WNW,293,0.0,0.0,94,0.00,,,0.00,Wunderground v.1.15,2013-06-17 10:14:00,
2013-06-17 05:20:00,60.7,59.0,29.87,WNW,293,0.0,0.0,94,0.00,,,0.00,Wunderground v.1.15,2013-06-17 10:20:00,
2013-06-17 05:25:00,60.1,58.4,29.87,WNW,293,0.0,0.0,94,0.00,,,0.00,Wunderground v.1.15,2013-06-17 10:25:00,
2013-06-17 05:31:00,60.2,58.8,29.88,WNW,293,0.0,0.0,95,0.00,,,0.00,Wunderground v.1.15,2013-06-17 10:31:00,
2013-06-17 05:37:00,60.4,59.0,29.88,WNW,293,0.0,0.0,95,0.00,,,0.00,Wunderground v.1.15,2013-06-17 10:37:00,
2013-06-17 05:44:00,60.5,58.8,29.88,WNW,293,0.0,0.0,94,0.00,,,0.00,Wunderground v.1.15,2013-06-17 10:44:00,
2013-06-17 05:50:00,60.6,59.2,29.88,WNW,293,0.0,0.0,95,0.00,,,0.00,Wunderground v.1.15,2013-06-17 10:50:00,
2013-06-17 05:56:00,61.0,59.6,29.88,WNW,293,0.0,0.0,95,0.00,,,0.00,Wunderground v.1.15,2013-06-17 10:56:00,
2013-06-17 06:02:00,61.3,59.9,29.88,WNW,293,0.0,0.0,95,0.00,,,0.00,Wunderground v.1.15,2013-06-17 11:02:00,
2013-06-17 06:07:00,61.2,59.5,29.89,WNW,293,0.0,0.0,94,0.00,,,0.00,Wunderground v.1.15,2013-06-17 11:07:00,
2013-06-17 06:14:00,61.3,59.9,29.89,WNW,293,0.0,0.0,95,0.00,,,0.00,Wunderground v.1.15,2013-06-17 11:14:00,
2013-06-17 06:19:00,62.2,60.8,29.89,WNW,293,0.0,0.0,95,0.00,,,0.00,Wunderground v.1.15,2013-06-17 11:19:00,
2013-06-17 06:26:00,63.1,61.9,29.89,WNW,293,0.0,0.0,96,0.00,,,0.00,Wunderground v.1.15,2013-06-17 11:26:00,
2013-06-17 06:32:00,63.5,62.0,29.89,WNW,293,0.0,0.0,95,0.00,,,0.00,Wunderground v.1.15,2013-06-17 11:32:00,
2013-06-17 06:38:00,63.9,62.4,29.89,WNW,293,0.0,0.0,95,0.00,,,0.00,Wunderground v.1.15,2013-06-17 11:38:00,
2013-06-17 06:44:00,64.7,63.2,29.89,WNW,293,0.0,0.0,95,0.00,,,0.00,Wunderground v.1.15,2013-06-17 11:44:00,
2013-06-17 06:49:00,65.3,63.8,29.89,WNW,293,0.0,3.0,95,0.00,,,0.00,Wunderground v.1.15,2013-06-17 11:49:00,
2013-06-17 06:56:00,65.9,64.4,29.89,WNW,293,1.0,3.0,95,0.00,,,0.00,Wunderground v.1.15,2013-06-17 11:56:00,
2013-06-17 07:02:00,66.3,64.8,29.89,WNW,293,1.0,2.0,95,0.00,,,0.00,Wunderground v.1.15,2013-06-17 12:02:00,
2013-06-17 07:07:00,66.8,65.0,29.89,WNW,289,2.0,3.0,94,0.00,,,0.00,Wunderground v.1.15,2013-06-17 12:07:00,
2013-06-17 07:14:00,67.3,65.2,29.90,WNW,288,2.0,2.0,93,0.00,,,0.00,Wunderground v.1.15,2013-06-17 12:14:00,
2013-06-17 07:20:00,67.8,65.4,29.90,West,279,2.0,3.0,92,0.00,,,0.00,Wunderground v.1.15,2013-06-17 12:20:00,
2013-06-17 07:25:00,68.5,65.4,29.90,West,278,2.0,5.0,90,0.00,,,0.00,Wunderground v.1.15,2013-06-17 12:25:00,
2013-06-17 07:31:00,69.1,65.7,29.90,West,275,2.0,2.0,89,0.00,,,0.00,Wunderground v.1.15,2013-06-17 12:31:00,
2013-06-17 07:38:00,69.7,66.0,29.90,West,271,2.0,3.0,88,0.00,,,0.00,Wunderground v.1.15,2013-06-17 12:38:00,
2013-06-17 07:44:00,70.1,65.7,29.90,West,269,2.0,2.0,86,0.00,,,0.00,Wunderground v.1.15,2013-06-17 12:44:00,
2013-06-17 07:50:00,70.7,66.0,29.90,West,269,2.0,3.0,85,0.00,,,0.00,Wunderground v.1.15,2013-06-17 12:50:00,
2013-06-17 07:56:00,71.2,66.5,29.90,West,269,2.0,3.0,85,0.00,,,0.00,Wunderground v.1.15,2013-06-17 12:56:00,
2013-06-17 08:02:00,71.5,66.1,29.91,West,269,2.0,4.0,83,0.00,,,0.00,Wunderground v.1.15,2013-06-17 13:02:00,
2013-06-17 08:07:00,72.0,66.2,29.91,West,269,2.0,4.0,82,0.00,,,0.00,Wunderground v.1.15,2013-06-17 13:07:00,
2013-06-17 08:14:00,72.2,66.0,29.91,West,269,3.0,4.0,81,0.00,,,0.00,Wunderground v.1.15,2013-06-17 13:14:00,
2013-06-17 08:20:00,72.6,65.7,29.91,West,269,4.0,4.0,79,0.00,,,0.00,Wunderground v.1.15,2013-06-17 13:20:00,
2013-06-17 08:25:00,73.1,66.6,29.91,West,269,3.0,4.0,80,0.00,,,0.00,Wunderground v.1.15,2013-06-17 13:25:00,
2013-06-17 08:32:00,73.7,66.4,29.92,West,269,3.0,3.0,78,0.00,,,0.00,Wunderground v.1.15,2013-06-17 13:32:00,
2013-06-17 08:37:00,74.0,65.6,29.91,West,262,3.0,3.0,75,0.00,,,0.00,Wunderground v.1.15,2013-06-17 13:37:00,
2013-06-17 08:44:00,74.5,65.7,29.92,West,262,3.0,3.0,74,0.00,,,0.00,Wunderground v.1.15,2013-06-17 13:44:00,
2013-06-17 08:50:00,74.8,66.3,29.92,West,263,3.0,3.0,75,0.00,,,0.00,Wunderground v.1.15,2013-06-17 13:50:00,
2013-06-17 08:56:00,75.2,67.1,29.91,West,264,3.0,4.0,76,0.00,,,0.00,Wunderground v.1.15,2013-06-17 13:56:00,
2013-06-17 09:02:00,75.6,65.5,29.91,West,261,3.0,3.0,71,0.00,,,0.00,Wunderground v.1.15,2013-06-17 14:02:00,
2013-06-17 09:08:00,76.0,66.3,29.91,West,261,3.0,4.0,72,0.00,,,0.00,Wunderground v.1.15,2013-06-17 14:08:00,
2013-06-17 09:14:00,76.4,66.3,29.91,West,261,2.0,2.0,71,0.00,,,0.00,Wunderground v.1.15,2013-06-17 14:14:00,
2013-06-17 09:20:00,76.7,65.3,29.91,West,261,2.0,3.0,68,0.00,,,0.00,Wunderground v.1.15,2013-06-17 14:20:00,
2013-06-17 09:26:00,77.1,65.3,29.90,West,265,3.0,4.0,67,0.00,,,0.00,Wunderground v.1.15,2013-06-17 14:26:00,
2013-06-17 09:31:00,77.5,66.9,29.90,West,265,3.0,3.0,70,0.00,,,0.00,Wunderground v.1.15,2013-06-17 14:31:00,
2013-06-17 09:37:00,77.9,66.1,29.90,West,265,2.0,3.0,67,0.00,,,0.00,Wunderground v.1.15,2013-06-17 14:37:00,
2013-06-17 09:44:00,78.3,65.1,29.90,WSW,254,2.0,4.0,64,0.00,,,0.00,Wunderground v.1.15,2013-06-17 14:44:00,
2013-06-17 09:50:00,78.8,63.3,29.90,West,268,2.0,4.0,59,0.00,,,0.00,Wunderground v.1.15,2013-06-17 14:50:00,
2013-06-17 09:55:00,79.2,64.6,29.89,WSW,256,2.0,2.0,61,0.00,,,0.00,Wunderground v.1.15,2013-06-17 14:55:00,
2013-06-17 10:02:00,79.7,64.1,29.89,WSW,256,2.0,3.0,59,0.00,,,0.00,Wunderground v.1.15,2013-06-17 15:02:00,
2013-06-17 10:08:00,79.8,64.7,29.89,West,280,3.0,3.0,60,0.00,,,0.00,Wunderground v.1.15,2013-06-17 15:08:00,
2013-06-17 10:13:00,80.1,63.5,29.89,West,279,2.0,5.0,57,0.00,,,0.00,Wunderground v.1.15,2013-06-17 15:13:00,
2013-06-17 10:20:00,80.2,63.6,29.89,West,273,3.0,4.0,57,0.00,,,0.00,Wunderground v.1.15,2013-06-17 15:20:00,
2013-06-17 10:25:00,80.2,65.1,29.89,West,280,3.0,4.0,60,0.00,,,0.00,Wunderground v.1.15,2013-06-17 15:25:00,
2013-06-17 10:32:00,80.6,63.5,29.89,West,265,2.0,4.0,56,0.00,,,0.00,Wunderground v.1.15,2013-06-17 15:32:00,
2013-06-17 10:37:00,80.7,62.5,29.89,West,267,3.0,4.0,54,0.00,,,0.00,Wunderground v.1.15,2013-06-17 15:37:00,
2013-06-17 10:44:00,80.8,64.1,29.89,West,263,4.0,5.0,57,0.00,,,0.00,Wunderground v.1.15,2013-06-17 15:44:00,
2013-06-17 10:49:00,81.1,63.9,29.89,West,263,3.0,3.0,56,0.00,,,0.00,Wunderground v.1.15,2013-06-17 15:49:00,
2013-06-17 10:55:00,81.5,62.7,29.89,SW,227,2.0,3.0,53,0.00,,,0.00,Wunderground v.1.15,2013-06-17 15:55:00,
2013-06-17 11:02:00,81.9,62.5,29.89,West,265,3.0,5.0,52,0.00,,,0.00,Wunderground v.1.15,2013-06-17 16:02:00,
2013-06-17 11:07:00,81.9,62.0,29.89,West,269,3.0,5.0,51,0.00,,,0.00,Wunderground v.1.15,2013-06-17 16:07:00,
2013-06-17 11:14:00,82.0,62.1,29.89,SW,231,3.0,3.0,51,0.00,,,0.00,Wunderground v.1.15,2013-06-17 16:14:00,
2013-06-17 11:19:00,82.0,62.1,29.89,SW,232,1.0,1.0,51,0.00,,,0.00,Wunderground v.1.15,2013-06-17 16:19:00,
2013-06-17 11:26:00,82.1,61.0,29.89,SW,232,1.0,3.0,49,0.00,,,0.00,Wunderground v.1.15,2013-06-17 16:26:00,
2013-06-17 11:31:00,82.2,61.1,29.88,WSW,252,2.0,2.0,49,0.00,,,0.00,Wunderground v.1.15,2013-06-17 16:31:00,
2013-06-17 11:38:00,82.2,61.1,29.88,West,267,3.0,5.0,49,0.00,,,0.00,Wunderground v.1.15,2013-06-17 16:38:00,
2013-06-17 11:44:00,82.6,62.6,29.88,West,281,3.0,3.0,51,0.00,,,0.00,Wunderground v.1.15,2013-06-17 16:44:00,
2013-06-17 11:50:00,82.8,59.9,29.88,WSW,258,3.0,3.0,46,0.00,,,0.00,Wunderground v.1.15,2013-06-17 16:50:00,
2013-06-17 11:55:00,82.9,59.4,29.88,West,263,3.0,5.0,45,0.00,,,0.00,Wunderground v.1.15,2013-06-17 16:55:00,
2013-06-17 12:01:00,83.1,63.1,29.88,WSW,254,3.0,5.0,51,0.00,,,0.00,Wunderground v.1.15,2013-06-17 17:01:00,
2013-06-17 12:08:00,83.3,63.3,29.88,WSW,255,3.0,5.0,51,0.00,,,0.00,Wunderground v.1.15,2013-06-17 17:08:00,
2013-06-17 12:14:00,83.4,59.8,29.89,WSW,243,3.0,7.0,45,0.00,,,0.00,Wunderground v.1.15,2013-06-17 17:14:00,
2013-06-17 12:20:00,83.5,63.5,29.89,West,263,4.0,4.0,51,0.00,,,0.00,Wunderground v.1.15,2013-06-17 17:20:00,
2013-06-17 12:26:00,83.6,60.0,29.89,SW,225,4.0,5.0,45,0.00,,,0.00,Wunderground v.1.15,2013-06-17 17:26:00,
2013-06-17 12:31:00,83.8,60.2,29.89,West,261,3.0,6.0,45,0.00,,,0.00,Wunderground v.1.15,2013-06-17 17:31:00,
2013-06-17 12:38:00,83.8,61.4,29.89,WSW,255,4.0,6.0,47,0.00,,,0.00,Wunderground v.1.15,2013-06-17 17:38:00,
2013-06-17 12:44:00,84.1,62.3,29.89,West,272,3.0,4.0,48,0.00,,,0.00,Wunderground v.1.15,2013-06-17 17:44:00,
2013-06-17 12:50:00,84.1,59.8,29.89,West,275,4.0,4.0,44,0.00,,,0.00,Wunderground v.1.15,2013-06-17 17:50:00,
2013-06-17 12:56:00,84.3,60.0,29.88,WSW,250,4.0,5.0,44,0.00,,,0.00,Wunderground v.1.15,2013-06-17 17:56:00,
2013-06-17 13:02:00,84.4,58.1,29.88,West,260,4.0,8.0,41,0.00,,,0.00,Wunderground v.1.15,2013-06-17 18:02:00,
2013-06-17 13:08:00,84.3,59.4,29.89,West,266,8.0,10.0,43,0.00,,,0.00,Wunderground v.1.15,2013-06-17 18:08:00,
2013-06-17 13:13:00,84.5,59.5,29.88,WSW,251,6.0,7.0,43,0.00,,,0.00,Wunderground v.1.15,2013-06-17 18:13:00,
2013-06-17 13:19:00,85.1,58.1,29.88,West,264,4.0,7.0,40,0.00,,,0.00,Wunderground v.1.15,2013-06-17 18:19:00,
2013-06-17 13:25:00,85.0,58.7,29.88,West,270,4.0,4.0,41,0.00,,,0.00,Wunderground v.1.15,2013-06-17 18:25:00,
2013-06-17 13:32:00,85.1,61.4,29.88,West,280,4.0,6.0,45,0.00,,,0.00,Wunderground v.1.15,2013-06-17 18:32:00,
2013-06-17 13:37:00,85.2,58.8,29.88,SW,229,4.0,6.0,41,0.00,,,0.00,Wunderground v.1.15,2013-06-17 18:37:00,
2013-06-17 13:43:00,85.5,63.0,29.88,West,276,3.0,4.0,47,0.00,,,0.00,Wunderground v.1.15,2013-06-17 18:43:00,
2013-06-17 13:50:00,85.6,61.2,29.88,WSW,248,4.0,6.0,44,0.00,,,0.00,Wunderground v.1.15,2013-06-17 18:50:00,
2013-06-17 13:56:00,85.5,61.1,29.88,WSW,257,5.0,9.0,44,0.00,,,0.00,Wunderground v.1.15,2013-06-17 18:56:00,
2013-06-17 14:01:00,85.3,60.3,29.87,West,270,5.0,5.0,43,0.00,,,0.00,Wunderground v.1.15,2013-06-17 19:01:00,
2013-06-17 14:08:00,85.5,61.1,29.87,West,277,5.0,9.0,44,0.00,,,0.00,Wunderground v.1.15,2013-06-17 19:08:00,
2013-06-17 14:14:00,85.3,63.4,29.87,West,281,6.0,7.0,48,0.00,,,0.00,Wunderground v.1.15,2013-06-17 19:14:00,
2013-06-17 14:20:00,85.8,59.4,29.87,West,259,6.0,6.0,41,0.00,,,0.00,Wunderground v.1.15,2013-06-17 19:20:00,
2013-06-17 14:26:00,86.1,62.9,29.86,SW,218,5.0,6.0,46,0.00,,,0.00,Wunderground v.1.15,2013-06-17 19:26:00,
2013-06-17 14:32:00,86.3,59.8,29.86,WNW,288,4.0,5.0,41,0.00,,,0.00,Wunderground v.1.15,2013-06-17 19:32:00,
2013-06-17 14:37:00,86.2,64.2,29.86,West,263,6.0,8.0,48,0.00,,,0.00,Wunderground v.1.15,2013-06-17 19:37:00,
2013-06-17 14:44:00,86.2,63.6,29.86,WSW,256,7.0,8.0,47,0.00,,,0.00,Wunderground v.1.15,2013-06-17 19:44:00,
2013-06-17 14:50:00,86.5,62.0,29.86,WSW,250,5.0,5.0,44,0.00,,,0.00,Wunderground v.1.15,2013-06-17 19:50:00,
2013-06-17 14:56:00,86.4,60.6,29.85,West,271,4.0,6.0,42,0.00,,,0.00,Wunderground v.1.15,2013-06-17 19:56:00,
2013-06-17 15:02:00,85.8,60.7,29.85,West,265,6.0,6.0,43,0.00,,,0.00,Wunderground v.1.15,2013-06-17 20:02:00,
2013-06-17 15:08:00,84.8,62.3,29.84,West,259,6.0,7.0,47,0.00,,,0.00,Wunderground v.1.15,2013-06-17 20:08:00,
2013-06-17 15:14:00,84.7,61.0,29.84,WSW,246,3.0,4.0,45,0.00,,,0.00,Wunderground v.1.15,2013-06-17 20:14:00,
2013-06-17 15:20:00,85.7,64.3,29.84,West,267,4.0,7.0,49,0.00,,,0.00,Wunderground v.1.15,2013-06-17 20:20:00,
2013-06-17 15:25:00,86.4,59.9,29.84,WNW,294,6.0,7.0,41,0.00,,,0.00,Wunderground v.1.15,2013-06-17 20:25:00,
2013-06-17 15:31:00,86.0,57.4,29.84,West,273,6.0,6.0,38,0.00,,,0.00,Wunderground v.1.15,2013-06-17 20:31:00,
2013-06-17 15:38:00,86.0,58.9,29.83,West,271,6.0,11.0,40,0.00,,,0.00,Wunderground v.1.15,2013-06-17 20:38:00,
2013-06-17 15:44:00,85.9,58.8,29.83,West,275,7.0,7.0,40,0.00,,,0.00,Wunderground v.1.15,2013-06-17 20:44:00,
2013-06-17 15:50:00,85.3,57.5,29.83,WNW,282,7.0,8.0,39,0.00,,,0.00,Wunderground v.1.15,2013-06-17 20:50:00,
2013-06-17 15:56:00,84.9,58.6,29.83,SSE,161,6.0,7.0,41,0.00,,,0.00,Wunderground v.1.15,2013-06-17 20:56:00,
2013-06-17 16:02:00,85.5,57.0,29.83,WNW,282,7.0,12.0,38,0.00,,,0.00,Wunderground v.1.15,2013-06-17 21:02:00,
2013-06-17 16:08:00,85.4,59.0,29.82,WNW,292,9.0,12.0,41,0.00,,,0.00,Wunderground v.1.15,2013-06-17 21:08:00,
2013-06-17 16:13:00,85.4,59.7,29.82,WNW,284,8.0,9.0,42,0.00,,,0.00,Wunderground v.1.15,2013-06-17 21:13:00,
2013-06-17 16:20:00,85.3,55.3,29.82,WNW,296,9.0,9.0,36,0.00,,,0.00,Wunderground v.1.15,2013-06-17 21:20:00,
2013-06-17 16:25:00,85.5,57.7,29.82,WNW,296,8.0,9.0,39,0.00,,,0.00,Wunderground v.1.15,2013-06-17 21:25:00,
2013-06-17 16:32:00,85.7,60.0,29.82,WNW,300,6.0,7.0,42,0.00,,,0.00,Wunderground v.1.15,2013-06-17 21:32:00,
2013-06-17 16:38:00,85.7,57.9,29.82,WNW,288,7.0,9.0,39,0.00,,,0.00,Wunderground v.1.15,2013-06-17 21:38:00,
2013-06-17 16:44:00,85.2,59.5,29.82,WNW,284,7.0,8.0,42,0.00,,,0.00,Wunderground v.1.15,2013-06-17 21:44:00,
2013-06-17 16:50:00,85.1,55.9,29.82,WNW,300,7.0,10.0,37,0.00,,,0.00,Wunderground v.1.15,2013-06-17 21:50:00,
2013-06-17 16:56:00,84.8,56.4,29.82,WNW,289,9.0,10.0,38,0.00,,,0.00,Wunderground v.1.15,2013-06-17 21:56:00,
2013-06-17 17:02:00,85.0,58.0,29.82,West,275,8.0,8.0,40,0.00,,,0.00,Wunderground v.1.15,2013-06-17 22:02:00,
2013-06-17 17:08:00,84.9,57.9,29.82,WNW,293,8.0,8.0,40,0.00,,,0.00,Wunderground v.1.15,2013-06-17 22:08:00,
2013-06-17 17:14:00,84.7,57.7,29.82,WNW,288,7.0,8.0,40,0.00,,,0.00,Wunderground v.1.15,2013-06-17 22:14:00,
2013-06-17 17:20:00,84.9,57.2,29.82,WNW,294,7.0,8.0,39,0.00,,,0.00,Wunderground v.1.15,2013-06-17 22:20:00,
2013-06-17 17:26:00,84.5,57.5,29.82,West,277,8.0,8.0,40,0.00,,,0.00,Wunderground v.1.15,2013-06-17 22:26:00,
2013-06-17 17:32:00,84.5,56.8,29.82,WNW,294,7.0,7.0,39,0.00,,,0.00,Wunderground v.1.15,2013-06-17 22:32:00,
2013-06-17 17:38:00,84.7,56.3,29.82,WNW,296,6.0,7.0,38,0.00,,,0.00,Wunderground v.1.15,2013-06-17 22:38:00,
2013-06-17 17:43:00,84.7,60.4,29.82,West,276,6.0,8.0,44,0.00,,,0.00,Wunderground v.1.15,2013-06-17 22:43:00,
2013-06-17 17:50:00,84.6,56.9,29.82,WNW,288,6.0,8.0,39,0.00,,,0.00,Wunderground v.1.15,2013-06-17 22:50:00,
2013-06-17 17:56:00,85.0,59.3,29.82,West,277,5.0,6.0,42,0.00,,,0.00,Wunderground v.1.15,2013-06-17 22:56:00,
2013-06-17 18:01:00,84.6,59.0,29.82,WNW,298,5.0,5.0,42,0.00,,,0.00,Wunderground v.1.15,2013-06-17 23:01:00,
2013-06-17 18:08:00,85.0,62.5,29.82,WNW,296,5.0,5.0,47,0.00,,,0.00,Wunderground v.1.15,2013-06-17 23:08:00,
2013-06-17 18:14:00,85.1,60.7,29.82,West,272,5.0,6.0,44,0.00,,,0.00,Wunderground v.1.15,2013-06-17 23:14:00,
2013-06-17 18:20:00,85.3,60.3,29.82,West,275,5.0,5.0,43,0.00,,,0.00,Wunderground v.1.15,2013-06-17 23:20:00,
2013-06-17 18:25:00,85.1,59.4,29.82,WNW,293,5.0,8.0,42,0.00,,,0.00,Wunderground v.1.15,2013-06-17 23:25:00,
2013-06-17 18:32:00,85.2,58.8,29.82,West,269,5.0,7.0,41,0.00,,,0.00,Wunderground v.1.15,2013-06-17 23:32:00,
2013-06-17 18:38:00,85.2,59.5,29.82,WNW,285,6.0,7.0,42,0.00,,,0.00,Wunderground v.1.15,2013-06-17 23:38:00,
2013-06-17 18:43:00,85.2,57.4,29.82,WNW,292,5.0,6.0,39,0.00,,,0.00,Wunderground v.1.15,2013-06-17 23:43:00,
2013-06-17 18:50:00,85.3,60.9,29.83,West,279,5.0,5.0,44,0.00,,,0.00,Wunderground v.1.15,2013-06-17 23:50:00,
2013-06-17 18:56:00,84.8,61.7,29.83,West,267,4.0,5.0,46,0.00,,,0.00,Wunderground v.1.15,2013-06-17 23:56:00,
2013-06-17 19:02:00,84.0,60.4,29.83,West,265,4.0,5.0,45,0.00,,,0.00,Wunderground v.1.15,2013-06-18 00:02:00,
2013-06-17 19:08:00,83.2,61.5,29.82,West,263,3.0,5.0,48,0.00,,,0.00,Wunderground v.1.15,2013-06-18 00:08:00,
2013-06-17 19:13:00,82.9,61.2,29.83,West,263,2.0,3.0,48,0.00,,,0.00,Wunderground v.1.15,2013-06-18 00:13:00,
2013-06-17 19:20:00,82.4,61.9,29.82,West,262,3.0,3.0,50,0.00,,,0.00,Wunderground v.1.15,2013-06-18 00:20:00,
2013-06-17 19:26:00,81.5,63.8,29.83,WSW,254,3.0,4.0,55,0.00,,,0.00,Wunderground v.1.15,2013-06-18 00:26:00,
2013-06-17 19:32:00,80.7,62.5,29.83,SW,236,3.0,3.0,54,0.00,,,0.00,Wunderground v.1.15,2013-06-18 00:32:00,
2013-06-17 19:38:00,80.7,62.5,29.82,SW,233,3.0,4.0,54,0.00,,,0.00,Wunderground v.1.15,2013-06-18 00:38:00,
2013-06-17 19:44:00,80.3,63.2,29.82,SW,232,3.0,4.0,56,0.00,,,0.00,Wunderground v.1.15,2013-06-18 00:44:00,
2013-06-17 19:49:00,79.9,62.8,29.82,SW,234,2.0,3.0,56,0.00,,,0.00,Wunderground v.1.15,2013-06-18 00:49:00,
2013-06-17 19:55:00,79.4,62.3,29.82,SW,226,3.0,3.0,56,0.00,,,0.00,Wunderground v.1.15,2013-06-18 00:55:00,
2013-06-17 20:02:00,79.1,63.1,29.82,SW,226,3.0,3.0,58,0.00,,,0.00,Wunderground v.1.15,2013-06-18 01:02:00,
2013-06-17 20:08:00,78.6,63.1,29.81,SW,227,3.0,4.0,59,0.00,,,0.00,Wunderground v.1.15,2013-06-18 01:08:00,
2013-06-17 20:14:00,78.2,63.2,29.81,SW,226,3.0,5.0,60,0.00,,,0.00,Wunderground v.1.15,2013-06-18 01:14:00,
2013-06-17 20:19:00,78.2,63.2,29.82,SW,230,3.0,6.0,60,0.00,,,0.00,Wunderground v.1.15,2013-06-18 01:19:00,
2013-06-17 20:25:00,78.3,63.3,29.82,SW,232,3.0,5.0,60,0.00,,,0.00,Wunderground v.1.15,2013-06-18 01:25:00,
2013-06-17 20:31:00,77.8,63.7,29.82,WSW,245,3.0,3.0,62,0.00,,,0.00,Wunderground v.1.15,2013-06-18 01:31:00,
2013-06-17 20:38:00,77.5,63.0,29.83,WSW,252,3.0,5.0,61,0.00,,,0.00,Wunderground v.1.15,2013-06-18 01:38:00,
2013-06-17 20:44:00,77.5,63.5,29.83,WSW,253,4.0,5.0,62,0.00,,,0.00,Wunderground v.1.15,2013-06-18 01:44:00,
2013-06-17 20:49:00,77.3,63.7,29.82,WSW,251,4.0,5.0,63,0.00,,,0.00,Wunderground v.1.15,2013-06-18 01:49:00,
2013-06-17 20:56:00,76.7,63.6,29.82,WSW,248,3.0,4.0,64,0.00,,,0.00,Wunderground v.1.15,2013-06-18 01:56:00,
2013-06-17 21:02:00,76.2,64.0,29.82,WSW,248,2.0,3.0,66,0.00,,,0.00,Wunderground v.1.15,2013-06-18 02:02:00,
2013-06-17 21:08:00,75.6,64.3,29.82,WSW,248,3.0,4.0,68,0.00,,,0.00,Wunderground v.1.15,2013-06-18 02:08:00,
2013-06-17 21:14:00,75.5,64.2,29.83,WSW,249,3.0,4.0,68,0.00,,,0.00,Wunderground v.1.15,2013-06-18 02:14:00,
2013-06-17 21:19:00,75.7,64.0,29.83,West,275,3.0,4.0,67,0.00,,,0.00,Wunderground v.1.15,2013-06-18 02:19:00,
2013-06-17 21:26:00,76.0,65.5,29.84,West,275,2.0,3.0,70,0.00,,,0.00,Wunderground v.1.15,2013-06-18 02:26:00,
2013-06-17 21:32:00,75.7,64.0,29.85,WNW,303,1.0,2.0,67,0.00,,,0.00,Wunderground v.1.15,2013-06-18 02:32:00,
2013-06-17 21:37:00,75.6,63.9,29.85,NW,304,2.0,3.0,67,0.00,,,0.00,Wunderground v.1.15,2013-06-18 02:37:00,
2013-06-17 21:44:00,75.5,61.6,29.86,North,355,2.0,3.0,62,0.00,,,0.00,Wunderground v.1.15,2013-06-18 02:44:00,
2013-06-17 21:49:00,75.3,63.2,29.86,NNW,329,3.0,7.0,66,0.00,,,0.00,Wunderground v.1.15,2013-06-18 02:49:00,
2013-06-17 21:55:00,74.1,63.3,29.86,West,275,5.0,7.0,69,0.00,,,0.00,Wunderground v.1.15,2013-06-18 02:55:00,
2013-06-17 22:02:00,73.7,61.2,29.85,WNW,287,6.0,7.0,65,0.00,,,0.00,Wunderground v.1.15,2013-06-18 03:02:00,
2013-06-17 22:08:00,72.9,61.7,29.86,West,265,7.0,7.0,68,0.00,,,0.00,Wunderground v.1.15,2013-06-18 03:08:00,
2013-06-17 22:13:00,72.7,62.8,29.86,West,261,6.0,7.0,71,0.00,,,0.00,Wunderground v.1.15,2013-06-18 03:13:00,
2013-06-17 22:20:00,72.8,62.8,29.86,West,273,5.0,7.0,71,0.00,,,0.00,Wunderground v.1.15,2013-06-18 03:20:00,
2013-06-17 22:26:00,73.0,63.8,29.86,West,275,5.0,6.0,73,0.00,,,0.00,Wunderground v.1.15,2013-06-18 03:26:00,
2013-06-17 22:32:00,72.4,63.6,29.85,West,275,2.0,2.0,74,0.00,,,0.00,Wunderground v.1.15,2013-06-18 03:32:00,
2013-06-17 22:38:00,72.4,64.0,29.85,West,275,1.0,2.0,75,0.00,,,0.01,Wunderground v.1.15,2013-06-18 03:38:00,
2013-06-17 22:44:00,72.0,63.6,29.85,West,275,0.0,0.0,75,0.00,,,0.01,Wunderground v.1.15,2013-06-18 03:44:00,
2013-06-17 22:50:00,71.9,64.7,29.84,West,275,0.0,1.0,78,0.00,,,0.01,Wunderground v.1.15,2013-06-18 03:50:00,
2013-06-17 22:56:00,71.2,64.4,29.84,West,275,0.0,0.0,79,0.00,,,0.01,Wunderground v.1.15,2013-06-18 03:56:00,
2013-06-17 23:01:00,70.9,65.1,29.84,West,275,0.0,0.0,82,0.00,,,0.01,Wunderground v.1.15,2013-06-18 04:01:00,
2013-06-17 23:03:00,70.7,64.9,29.84,West,275,0.0,1.0,82,0.00,,,0.01,Wunderground v.1.15,2013-06-18 04:03:00,
2013-06-17 23:06:00,70.7,65.3,29.84,West,275,0.0,1.0,83,0.00,,,0.01,Wunderground v.1.15,2013-06-18 04:06:00,
2013-06-17 23:08:00,70.6,65.5,29.85,West,275,0.0,1.0,84,0.00,,,0.01,Wunderground v.1.15,2013-06-18 04:08:00,
2013-06-17 23:12:00,70.4,65.0,29.85,NE,50,2.0,5.0,83,0.00,,,0.01,Wunderground v.1.15,2013-06-18 04:12:00,
2013-06-17 23:17:00,70.3,63.8,29.85,ENE,57,4.0,5.0,80,0.00,,,0.01,Wunderground v.1.15,2013-06-18 04:17:00,
2013-06-17 23:24:00,70.0,63.9,29.85,ENE,57,2.0,3.0,81,0.00,,,0.01,Wunderground v.1.15,2013-06-18 04:24:00,
2013-06-17 23:30:00,69.8,64.1,29.85,ENE,57,2.0,3.0,82,0.00,,,0.01,Wunderground v.1.15,2013-06-18 04:30:00,
2013-06-17 23:36:00,69.3,63.9,29.84,ENE,57,2.0,2.0,83,0.00,,,0.01,Wunderground v.1.15,2013-06-18 04:36:00,
2013-06-17 23:42:00,68.9,63.9,29.84,ENE,57,2.0,3.0,84,0.00,,,0.01,Wunderground v.1.15,2013-06-18 04:42:00,
2013-06-17 23:48:00,68.7,62.6,29.84,ENE,68,4.0,5.0,81,0.00,,,0.01,Wunderground v.1.15,2013-06-18 04:48:00,
2013-06-17 23:54:00,68.8,62.7,29.84,ENE,67,5.0,5.0,81,0.00,,,0.01,Wunderground v.1.15,2013-06-18 04:54:00,